Change the Weather History Date:

Saturday, March 9, 2013

  Actual Average Record
Temperature  
Mean Temperature 21 °F -  
Max Temperature 30 °F - - ()
Min Temperature 10 °F - - ()
Degree Days  
Heating Degree Days 44    
Moisture  
Dew Point 20 °F    
Average Humidity 93    
Maximum Humidity 100    
Minimum Humidity 80    
Precipitation  
Precipitation 0.01 in - - ()
Sea Level Pressure  
Sea Level Pressure 29.57 in    
Wind  
Wind Speed 17 mph (South)    
Max Wind Speed 23 mph    
Max Gust Speed 32 mph    
Visibility 3 miles    
Events Fog , Rain , Snow    
T = Trace of Precipitation, MM = Missing Value Source: NWS Daily Summary

Daily Weather History Graph

Daily Weather History Graph

Search for Another Location

Airport or City:

Trip Planner

Search our weather history database for the weather conditions in past years. The results will help you decide how hot, cold, wet, or windy it might be!

Date:

Astronomy

Mar. 09, 2013 Rise Set
Actual Time 8:41 AM AKST 7:37 PM AKST
Civil Twilight 7:46 AM AKST 8:32 PM AKST
Nautical Twilight 6:42 AM AKST 9:37 PM AKST
Astronomical Twilight 5:30 AM AKST 10:49 PM AKST
Moon 7:55 AM AKST (3/9) 5:22 PM AKST (3/9)
Length of Visible Light 12h 45m
Length of Day
10h 56m
Waning Crescent, 5% of the Moon is Illuminated
Mar 9
Waning Crescent
Mar 11
New
Mar 19
First Quarter
Mar 27
Full
Apr 2
Last Quarter

Hourly Weather History & Observations

Time (AKST) Temp. Windchill Dew Point Humidity Pressure Visibility Wind Dir Wind Speed Gust Speed Precip Events Conditions
12:23 AM 28.4 °F 14.7 °F 28.4 °F 100% 29.34 in 1.0 mi SE 21.9 mph 32.2 mph 0.00 in Snow Light Snow
12:53 AM 30.0 °F 16.6 °F 28.9 °F 96% 29.35 in 1.0 mi SE 23.0 mph 29.9 mph 0.00 in Snow Light Snow
1:03 AM 30.2 °F 16.8 °F 28.4 °F 93% 29.35 in 0.8 mi SE 23.0 mph 29.9 mph 0.00 in Snow Light Snow
1:11 AM 28.4 °F 14.7 °F 28.4 °F 100% 29.36 in 1.0 mi SE 21.9 mph 29.9 mph 0.00 in Snow Light Snow
1:53 AM 28.9 °F 15.4 °F 28.9 °F 100% 29.37 in 1.8 mi SE 21.9 mph - 0.00 in Snow Light Snow
2:46 AM 28.4 °F 15.1 °F 28.4 °F 100% 29.38 in 3.0 mi SE 20.7 mph 29.9 mph 0.00 in Snow Light Snow
3:36 AM 30.2 °F 17.8 °F 28.4 °F 93% 29.39 in 4.0 mi SE 19.6 mph - 0.00 in   Overcast
3:53 AM 30.0 °F 17.9 °F 28.9 °F 96% 29.40 in 7.0 mi SE 18.4 mph - 0.00 in   Overcast
4:45 AM 28.4 °F 16.2 °F 28.4 °F 100% 29.42 in 4.0 mi SE 17.3 mph - 0.00 in Rain Light Freezing Rain
4:53 AM 28.9 °F 17.3 °F 28.9 °F 100% 29.42 in 4.0 mi SE 16.1 mph - 0.00 in Rain Light Freezing Rain
5:07 AM 28.4 °F 17.0 °F 28.4 °F 100% 29.42 in 2.0 mi SE 15.0 mph - 0.00 in Rain Light Freezing Rain
5:30 AM 28.4 °F 16.2 °F 28.4 °F 100% 29.43 in 2.0 mi SE 17.3 mph - 0.00 in Rain Light Freezing Rain
5:38 AM 30.2 °F 18.9 °F 28.4 °F 93% 29.43 in 1.8 mi SE 16.1 mph - 0.00 in Rain Light Freezing Rain
5:49 AM 28.4 °F 17.0 °F 28.4 °F 100% 29.44 in 2.0 mi SE 15.0 mph - 0.00 in Rain Light Freezing Rain
5:50 AM 28.9 °F 18.2 °F 28.9 °F 100% 29.44 in 2.0 mi SE 13.8 mph - 0.00 in Rain Light Freezing Rain
6:08 AM 28.4 °F 17.0 °F 28.4 °F 100% 29.45 in 3.0 mi SE 15.0 mph - 0.00 in Rain Light Freezing Rain
6:38 AM 28.4 °F 16.6 °F 28.4 °F 100% 29.45 in 3.0 mi SSE 16.1 mph - 0.00 in Rain Light Freezing Rain
6:48 AM 28.4 °F 17.0 °F 28.4 °F 100% 29.45 in 3.0 mi SSE 15.0 mph - 0.00 in Rain Light Freezing Rain
6:53 AM 28.9 °F 18.6 °F 28.9 °F 100% 29.46 in 2.5 mi SSE 12.7 mph - 0.00 in Rain Light Freezing Rain
7:27 AM 28.4 °F 17.5 °F 28.4 °F 100% 29.46 in 3.0 mi SE 13.8 mph - 0.00 in Snow Light Snow
7:32 AM 28.4 °F 18.5 °F 28.4 °F 100% 29.46 in 2.5 mi SE 11.5 mph - 0.00 in Snow Light Snow
7:42 AM 28.4 °F 18.5 °F 28.4 °F 100% 29.46 in 3.0 mi SE 11.5 mph - 0.00 in Snow Light Snow
7:53 AM 28.9 °F 18.6 °F 28.9 °F 100% 29.47 in 4.0 mi SE 12.7 mph - 0.00 in   Overcast
8:01 AM 28.4 °F 18.5 °F 28.4 °F 100% 29.47 in 4.0 mi SE 11.5 mph - N/A   Overcast
8:21 AM 28.4 °F 16.6 °F 28.4 °F 100% 29.47 in 3.0 mi SSE 16.1 mph - 0.00 in Snow Light Snow
8:50 AM 28.4 °F 17.5 °F 28.4 °F 100% 29.48 in 1.8 mi SSE 13.8 mph - 0.00 in Snow Light Snow
8:53 AM 28.0 °F 17.5 °F 28.0 °F 100% 29.48 in 1.5 mi SSE 12.7 mph - 0.00 in Snow Light Snow
9:41 AM 26.6 °F 16.2 °F 24.8 °F 93% 29.50 in 2.5 mi SW 11.5 mph - 0.00 in Snow Light Snow
9:43 AM 26.6 °F 16.2 °F 24.8 °F 93% 29.50 in 2.5 mi SW 11.5 mph - 0.00 in Snow Light Snow
9:53 AM 25.0 °F 12.6 °F 25.0 °F 100% 29.51 in 1.5 mi SSW 15.0 mph - 0.00 in Snow Light Snow
10:42 AM 23.0 °F 10.1 °F 21.2 °F 93% 29.54 in 0.5 mi South 15.0 mph - 0.01 in Fog , Snow Light Snow
10:51 AM 21.2 °F 6.8 °F 21.2 °F 100% 29.55 in 0.5 mi South 17.3 mph - 0.01 in Fog , Snow Light Snow
10:53 AM 21.9 °F 7.8 °F 21.0 °F 96% 29.55 in 0.8 mi South 17.3 mph - 0.01 in Snow Light Snow
11:09 AM 21.2 °F 6.8 °F 19.4 °F 93% 29.56 in 1.2 mi South 17.3 mph - 0.00 in Snow Light Snow
11:16 AM 21.2 °F 6.8 °F 19.4 °F 93% 29.57 in 2.0 mi South 17.3 mph - 0.00 in Snow Light Snow
11:34 AM 21.2 °F 7.8 °F 19.4 °F 93% 29.58 in 1.8 mi South 15.0 mph - 0.00 in Snow Light Snow
11:50 AM 21.2 °F 7.3 °F 19.4 °F 93% 29.59 in 2.0 mi South 16.1 mph - 0.00 in Snow Light Snow
11:53 AM 21.0 °F 8.1 °F 19.0 °F 92% 29.59 in 2.0 mi South 13.8 mph - 0.00 in Snow Light Snow
12:01 PM 21.2 °F 8.9 °F 19.4 °F 93% 29.60 in 1.8 mi SSW 12.7 mph - 0.00 in Snow Light Snow
12:10 PM 21.2 °F 6.8 °F 19.4 °F 93% 29.60 in 3.0 mi SW 17.3 mph - 0.00 in Snow Light Snow
12:27 PM 17.6 °F 0.9 °F 15.8 °F 93% 29.61 in 1.8 mi SW 20.7 mph - 0.00 in Snow Light Snow
12:46 PM 17.6 °F 1.7 °F 14.0 °F 86% 29.63 in 2.5 mi SW 18.4 mph - 0.00 in Snow Light Snow
12:49 PM 15.8 °F -1.5 °F 14.0 °F 93% 29.63 in 2.5 mi SW 20.7 mph - 0.00 in Snow Light Snow
12:53 PM 16.0 °F -0.4 °F 12.9 °F 88% 29.63 in 2.5 mi SW 18.4 mph - 0.00 in Snow Light Snow
1:02 PM 15.8 °F -1.1 °F 12.2 °F 86% 29.65 in 4.0 mi SSW 19.6 mph - 0.00 in   Overcast
1:27 PM 14.0 °F -2.5 °F 10.4 °F 86% 29.67 in 2.5 mi SW 17.3 mph - 0.00 in Snow Light Snow
1:41 PM 14.0 °F -3.0 °F 10.4 °F 86% 29.68 in 1.2 mi SSW 18.4 mph - 0.00 in Snow Light Snow
1:50 PM 12.2 °F -6.7 °F 8.6 °F 85% 29.69 in 1.0 mi SW 21.9 mph - 0.00 in Snow Light Snow
1:53 PM 12.9 °F -4.9 °F 9.0 °F 84% 29.70 in 1.0 mi SW 19.6 mph - 0.00 in Snow Light Snow
2:32 PM 12.2 °F -4.8 °F 10.4 °F 92% 29.72 in 3.0 mi SSW 17.3 mph - 0.00 in Snow Light Snow
2:41 PM 12.2 °F -5.3 °F 10.4 °F 92% 29.72 in 1.8 mi SSW 18.4 mph - 0.00 in Snow Light Snow
2:49 PM 12.2 °F -3.7 °F 10.4 °F 92% 29.73 in 2.0 mi SSW 15.0 mph - 0.00 in Snow Light Snow
2:50 PM 12.9 °F -3.4 °F 10.0 °F 88% 29.73 in 2.0 mi SSW 16.1 mph - 0.00 in Snow Light Snow
2:56 PM 12.2 °F -4.8 °F 10.4 °F 92% 29.73 in 4.0 mi SSW 17.3 mph - 0.00 in Snow Light Snow
3:28 PM 12.2 °F -1.8 °F 10.4 °F 92% 29.75 in 9.0 mi SSW 11.5 mph - 0.00 in   Mostly Cloudy
3:53 PM 14.0 °F 1.2 °F 10.0 °F 84% 29.77 in 8.0 mi SSW 10.4 mph - 0.00 in   Overcast
4:53 PM 15.1 °F 6.4 °F 10.9 °F 84% 29.78 in 6.0 mi South 5.8 mph - 0.00 in Snow Light Snow
5:53 PM 16.0 °F 0.1 °F 10.9 °F 81% 29.80 in 5.0 mi South 17.3 mph - 0.00 in Snow Light Snow
6:53 PM 16.0 °F 3.6 °F 10.9 °F 81% 29.83 in 7.0 mi SSW 10.4 mph - 0.00 in   Overcast
7:53 PM 15.1 °F -0.6 °F 10.0 °F 80% 29.85 in 7.0 mi South 16.1 mph - 0.00 in Snow Light Snow
8:53 PM 14.0 °F 3.9 °F 9.0 °F 80% 29.88 in 9.0 mi SW 6.9 mph - 0.00 in   Overcast
9:53 PM 12.9 °F 1.6 °F 9.0 °F 84% 29.91 in 10.0 mi West 8.1 mph - 0.00 in   Overcast
10:53 PM 12.0 °F 5.9 °F 9.0 °F 88% 29.93 in 9.0 mi NNE 3.5 mph - N/A   Overcast
11:53 PM 10.9 °F 2.9 °F 8.1 °F 88% 29.96 in 8.0 mi NNW 4.6 mph - N/A   Overcast